Latest Weather Observations for Kingaroy

IDQ60801

Issued at 11:05 am EST Friday 29 August 2014 (issued every 30 minutes, with the page automatically refreshed every 10 minutes)

About weather observations | Map of weather stations | Latest weather observations for QLD | Other Formats
Station Details ID: 040922 Name: KINGAROY AIRPORT Lat: -26.57 Lon: 151.84 Height: 433.67 m
Data from the previous 72 hours. | See also: Recent months at Kingaroy
Date/Time
EST
Temp
°C
App
Temp
°C
Dew
Point
Rel
Hum
%
Delta-T
°C
Wind Press
QNH
hPa
Press
MSL
hPa
Rain
since 9 am
mm
Dir
 
Spd
km/h
Gust
km/h
Spd
kts
Gust
kts
29/11:00am 17.5 14.5 6.1 47 5.7 SE 11 17 6 9 1023.1 1022.9 0.0
29/10:30am 17.6 14.6 7.6 52 5.1 ESE 13 24 7 13 1023.4 1023.2 0.0
29/10:00am 16.6 13.0 6.7 52 5.0 ESE 15 20 8 11 1023.8 1023.5 0.0
29/09:30am 15.2 11.3 7.0 58 4.1 SE 17 26 9 14 1024.0 1023.7 0.0
29/09:00am 14.6 10.7 7.2 61 3.7 SE 17 24 9 13 1024.0 1023.7 0.0
29/08:30am 13.4 10.2 6.7 64 3.3 SE 13 17 7 9 1024.0 1023.7 0.0
29/08:00am 11.7 10.1 8.2 79 1.8 S 6 11 3 6 1023.9 1023.6 0.0
29/07:30am 9.5 7.9 8.6 94 0.4 S 7 9 4 5 1023.5 1023.3 0.0
29/07:00am 6.1 3.8 5.7 97 0.2 S 7 11 4 6 1023.3 1023.1 0.0
29/06:30am 4.6 3.3 3.9 95 0.3 CALM 0 0 0 0 1022.9 1022.7 0.0
29/06:00am 5.5 4.0 4.9 96 0.3 SSE 2 7 1 4 1022.7 1022.5 0.0
29/05:30am 5.5 3.6 4.9 96 0.3 SSE 4 7 2 4 1022.5 1022.2 0.0
29/05:00am 4.9 3.6 4.2 95 0.3 CALM 0 0 0 0 1022.2 1021.9 0.0
29/04:30am 5.8 4.7 5.1 95 0.3 CALM 0 0 0 0 1022.1 1021.8 0.0
29/04:00am 6.3 4.1 5.3 93 0.4 W 6 7 3 4 1021.9 1021.6 0.0
29/03:30am 6.7 5.6 4.9 88 0.8 CALM 0 0 0 0 1022.0 1021.7 0.0
29/03:00am 7.0 6.1 5.9 93 0.5 CALM 0 0 0 0 1022.0 1021.7 0.0
29/02:30am 7.5 6.7 6.4 93 0.5 CALM 0 0 0 0 1021.9 1021.6 0.0
29/02:00am 7.6 6.7 6.1 90 0.7 CALM 0 0 0 0 1021.9 1021.6 0.0
29/01:30am 8.4 6.8 6.4 87 0.9 S 4 6 2 3 1022.1 1021.8 0.0
29/01:00am 9.0 6.5 6.6 85 1.1 S 9 11 5 6 1022.4 1022.1 0.0
29/12:30am 10.1 6.9 6.8 80 1.6 SSE 13 15 7 8 1022.4 1022.1 0.0
29/12:00am 11.0 7.5 7.3 78 1.8 SSE 15 19 8 10 1022.5 1022.2 0.0
 
Date/Time
EST
Temp
°C
App
Temp
°C
Dew
Point
Rel
Hum
%
Delta-T
°C
Wind Press
QNH
hPa
Press
MSL
hPa
Rain
since 9 am
mm
Dir
 
Spd
km/h
Gust
km/h
Spd
kts
Gust
kts
28/11:30pm 11.9 8.8 7.4 74 2.2 SE 13 20 7 11 1022.6 1022.3 0.0
28/11:00pm 12.1 9.9 7.8 75 2.1 SE 9 17 5 9 1022.6 1022.3 0.0
28/10:30pm 12.4 9.8 7.7 73 2.3 SE 11 17 6 9 1022.7 1022.5 0.0
28/10:00pm 12.7 10.8 7.6 71 2.5 ESE 7 13 4 7 1022.6 1022.3 0.0
28/09:30pm 11.5 9.7 7.0 74 2.2 E 6 7 3 4 1022.5 1022.2 0.0
28/09:00pm 13.9 11.3 7.7 66 3.1 SE 11 17 6 9 1022.2 1021.9 0.0
28/08:30pm 14.2 11.6 7.7 65 3.3 SE 11 19 6 10 1022.0 1021.7 0.0
28/08:00pm 14.6 12.0 7.9 64 3.4 SE 11 19 6 10 1021.8 1021.5 0.0
28/07:30pm 15.2 12.2 7.7 61 3.8 SE 13 19 7 10 1021.5 1021.2 0.0
28/07:00pm 15.5 12.4 7.3 58 4.1 ESE 13 20 7 11 1021.0 1020.8 0.0
28/06:30pm 16.3 13.0 6.4 52 4.9 SE 13 19 7 10 1020.7 1020.5 0.0
28/06:00pm 17.3 14.8 6.5 49 5.4 SE 9 15 5 8 1020.3 1020.0 0.0
28/05:30pm 18.2 14.6 6.7 47 5.9 ESE 15 22 8 12 1020.0 1019.7 0.0
28/05:00pm 18.7 15.4 6.2 44 6.3 ESE 13 20 7 11 1019.5 1019.2 0.0
28/04:30pm 19.0 15.6 6.1 43 6.5 SE 13 22 7 12 1019.1 1018.8 0.0
28/04:00pm 19.8 16.0 5.8 40 7.1 ESE 15 22 8 12 1018.6 1018.3 0.0
28/03:30pm 19.8 15.8 6.5 42 6.8 ESE 17 26 9 14 1018.2 1017.9 0.0
28/03:00pm 19.9 16.2 6.3 41 6.9 SSE 15 26 8 14 1017.9 1017.6 0.0
28/02:30pm 20.1 15.8 6.8 42 6.9 SSE 19 28 10 15 1017.9 1017.6 0.0
28/02:00pm 20.7 17.2 7.3 42 7.0 SE 15 24 8 13 1017.9 1017.6 0.0
28/01:30pm 20.9 15.3 7.2 41 7.2 S 26 32 14 17 1018.0 1017.7 0.0
28/01:14pm 20.1 14.1 7.1 43 6.8 S 28 46 15 25 1017.9 1017.6 0.0
28/01:00pm 19.6 14.4 7.4 45 6.3 S 24 33 13 18 1017.9 1017.6 0.0
28/12:30pm 19.3 14.5 8.9 51 5.6 SSW 24 33 13 18 1017.9 1017.6 0.0
28/12:00pm 19.2 14.2 8.2 49 5.8 S 24 33 13 18 1018.1 1017.8 0.0
28/11:30am 19.4 14.9 9.9 54 5.2 SSW 24 32 13 17 1018.3 1018.0 0.0
28/11:00am 17.8 12.7 9.2 57 4.6 S 26 33 14 18 1018.5 1018.2 0.0
28/10:30am 17.9 12.1 9.3 57 4.6 S 30 43 16 23 1018.5 1018.2 0.0
28/10:00am 17.7 12.6 9.3 58 4.5 SSE 26 39 14 21 1018.6 1018.3 0.0
28/09:30am 17.5 11.9 10.1 62 4.0 S 30 37 16 20 1018.5 1018.2 0.0
28/09:00am 16.0 12.0 9.0 63 3.7 SSW 20 26 11 14 1018.5 1018.2 4.6
28/08:30am 14.9 11.2 10.1 73 2.6 SSW 20 26 11 14 1018.4 1018.1 4.6
28/08:00am 13.3 9.0 9.2 76 2.1 S 22 28 12 15 1018.2 1017.9 4.6
28/07:30am 11.8 9.2 9.2 84 1.3 SSW 13 17 7 9 1017.6 1017.3 4.6
28/07:00am 10.1 7.4 8.9 92 0.6 S 13 15 7 8 1017.5 1017.2 4.6
28/06:30am 9.3 6.3 7.9 91 0.7 S 13 15 7 8 1017.2 1016.9 4.6
28/06:00am 9.5 6.9 7.6 88 0.9 S 11 15 6 8 1017.0 1016.7 4.6
28/05:30am 10.4 7.1 8.2 86 1.1 SW 15 20 8 11 1016.6 1016.2 4.6
28/05:00am 10.8 6.8 8.4 85 1.2 SSW 19 26 10 14 1016.5 1016.1 4.6
28/04:30am 10.5 8.4 8.3 86 1.1 SW 9 15 5 8 1016.0 1015.7 4.6
28/04:00am 9.8 6.7 7.4 85 1.2 SSW 13 19 7 10 1015.6 1015.3 4.6
28/03:30am 10.6 6.3 8.0 84 1.3 S 20 26 11 14 1015.6 1015.3 4.6
28/03:00am 10.5 5.9 8.1 85 1.2 SSW 22 30 12 16 1015.6 1015.3 4.6
28/02:30am 10.6 6.4 8.2 85 1.2 SSW 20 30 11 16 1015.7 1015.4 4.6
28/02:00am 10.9 5.9 8.1 83 1.4 SSW 24 33 13 18 1015.6 1015.3 4.6
28/01:30am 10.7 6.5 8.1 84 1.3 SSW 20 28 11 15 1015.7 1015.4 4.6
28/01:00am 10.6 6.5 8.0 84 1.3 SSW 19 32 10 17 1015.6 1015.3 4.6
28/12:30am 10.4 6.2 7.5 82 1.4 SSW 19 24 10 13 1016.0 1015.7 4.6
28/12:00am 10.4 5.2 7.3 81 1.5 SSW 24 33 13 18 1016.4 1016.0 4.6
 
Date/Time
EST
Temp
°C
App
Temp
°C
Dew
Point
Rel
Hum
%
Delta-T
°C
Wind Press
QNH
hPa
Press
MSL
hPa
Rain
since 9 am
mm
Dir
 
Spd
km/h
Gust
km/h
Spd
kts
Gust
kts
27/11:30pm 10.2 7.0 6.7 79 1.7 WSW 13 19 7 10 1016.7 1016.3 4.6
27/11:00pm 9.7 7.2 6.4 80 1.6 WSW 9 13 5 7 1016.7 1016.3 4.6
27/10:30pm 9.5 6.5 6.0 79 1.7 WSW 11 15 6 8 1016.8 1016.5 4.6
27/10:00pm 9.6 6.9 5.4 75 2.0 SW 9 15 5 8 1017.1 1016.8 4.6
27/09:30pm 9.1 7.0 6.5 84 1.2 S 7 9 4 5 1016.9 1016.6 4.6
27/09:00pm 8.6 6.6 6.4 86 1.0 WSW 6 9 3 5 1016.9 1016.6 4.6
27/08:30pm 8.5 6.1 5.3 80 1.5 NNW 7 11 4 6 1016.8 1016.5 4.6
27/08:00pm 9.3 6.3 6.0 80 1.6 SSW 11 15 6 8 1017.0 1016.7 4.6
27/07:30pm 9.3 5.9 5.7 78 1.7 S 13 17 7 9 1017.0 1016.7 4.6
27/07:00pm 9.5 6.2 6.2 80 1.6 S 13 15 7 8 1016.9 1016.6 4.6
27/06:30pm 10.1 7.2 6.3 77 1.8 S 11 11 6 6 1016.6 1016.2 4.6
27/06:00pm 10.8 7.5 6.2 73 2.2 S 13 15 7 8 1016.6 1016.2 4.6
27/05:30pm 12.8 7.4 6.4 65 3.1 S 24 35 13 19 1016.2 1015.9 4.6
27/05:00pm 14.2 9.8 7.5 64 3.4 S 20 24 11 13 1015.9 1015.6 4.6
27/04:30pm 14.3 9.7 8.0 66 3.2 S 22 28 12 15 1015.5 1015.2 4.6
27/04:00pm 13.6 8.6 8.2 70 2.7 S 24 33 13 18 1015.0 1014.7 4.6
27/03:30pm 14.1 9.4 9.1 72 2.6 S 24 35 13 19 1015.1 1014.8 4.6
27/03:00pm 14.8 9.4 9.4 70 2.8 SSW 28 37 15 20 1014.8 1014.5 4.6
27/02:30pm 13.1 7.2 10.3 83 1.5 S 32 39 17 21 1015.0 1014.7 4.6
27/02:00pm 12.3 7.0 9.7 84 1.4 S 28 35 15 19 1015.1 1014.8 4.6
27/01:30pm 12.5 8.3 7.6 72 2.4 SE 19 28 10 15 1015.4 1015.1 4.2
27/01:00pm 11.9 6.5 9.5 85 1.2 S 28 35 15 19 1015.3 1015.0 3.8
27/12:30pm 13.3 7.5 6.4 63 3.4 SSW 26 37 14 20 1015.7 1015.4 0.0
27/12:00pm 18.4 17.0 9.7 57 4.7 N 7 13 4 7 1015.5 1015.2 0.0
27/11:30am 16.8 15.4 9.5 62 3.9 NNW 7 11 4 6 1016.2 1015.9 0.0
27/11:00am 16.7 14.8 8.9 60 4.1 WNW 9 13 5 7 1016.6 1016.2 0.0
27/10:30am 15.8 14.4 9.5 66 3.3 SE 7 9 4 5 1017.1 1016.8 0.0
27/10:00am 16.2 14.6 10.3 68 3.2 S 9 13 5 7 1017.4 1017.1 0.0
27/09:30am 14.6 12.2 10.0 74 2.4 S 13 15 7 8 1017.4 1017.1 0.0
27/09:00am 14.2 12.3 10.6 79 1.9 S 11 15 6 8 1017.5 1017.2 3.0
27/08:30am 13.0 12.0 10.9 87 1.1 S 7 9 4 5 1017.3 1017.0 3.0
27/08:00am 12.9 12.7 10.4 85 1.3 WNW 2 6 1 3 1017.1 1016.8 3.0
27/07:30am 12.2 11.9 11.3 94 0.5 NNE 4 9 2 5 1016.7 1016.3 3.0
27/07:00am 9.6 9.5 9.3 98 0.2 CALM 0 0 0 0 1016.4 1016.0 3.0
27/06:30am 8.5 7.3 8.2 98 0.1 SSE 4 9 2 5 1016.4 1016.0 3.0
27/06:00am 8.5 8.1 8.1 97 0.2 CALM 0 0 0 0 1016.1 1015.8 3.0
27/05:30am 9.2 9.0 8.9 98 0.2 CALM 0 2 0 1 1015.9 1015.6 3.0
27/05:00am 9.3 7.8 9.0 98 0.2 SSW 7 9 4 5 1016.0 1015.7 3.0
27/04:30am 9.2 9.0 8.9 98 0.2 CALM 0 0 0 0 1015.8 1015.5 3.0
27/04:00am 9.5 9.3 9.0 97 0.3 CALM 0 0 0 0 1015.5 1015.2 3.0
27/03:30am 9.9 9.0 9.4 97 0.3 W 4 7 2 4 1015.8 1015.5 3.0
27/03:00am 10.3 10.3 9.7 96 0.3 CALM 0 0 0 0 1015.9 1015.6 3.0
27/02:30am 10.0 9.8 8.9 93 0.6 CALM 0 0 0 0 1016.2 1015.9 3.0
27/02:00am 11.3 10.1 10.2 93 0.6 ENE 7 11 4 6 1016.7 1016.3 3.0
27/01:30am 11.4 9.9 10.5 94 0.5 E 9 11 5 6 1017.1 1016.8 3.0
27/01:00am 11.1 9.5 10.2 94 0.5 E 9 11 5 6 1017.4 1017.1 3.0
27/12:30am 12.1 11.2 11.2 94 0.5 ENE 7 11 4 6 1017.5 1017.2 3.0
27/12:00am 12.0 11.2 11.1 94 0.5 E 6 7 3 4 1017.7 1017.4 3.0
 
Date/Time
EST
Temp
°C
App
Temp
°C
Dew
Point
Rel
Hum
%
Delta-T
°C
Wind Press
QNH
hPa
Press
MSL
hPa
Rain
since 9 am
mm
Dir
 
Spd
km/h
Gust
km/h
Spd
kts
Gust
kts
26/11:30pm 12.2 11.2 11.1 93 0.6 ESE 7 11 4 6 1018.0 1017.7 3.0
26/11:00pm 12.6 10.8 10.8 89 1.0 WSW 11 15 6 8 1018.3 1018.0 1.0
26/10:30pm 12.8 11.1 10.0 83 1.5 E 9 11 5 6 1017.6 1017.3 0.0
26/10:00pm 12.8 10.7 9.6 81 1.7 E 11 15 6 8 1017.7 1017.4 0.0
26/09:30pm 13.3 11.9 9.0 75 2.2 ENE 6 7 3 4 1017.8 1017.5 0.0
26/09:00pm 14.0 11.7 9.0 72 2.6 E 11 13 6 7 1017.6 1017.3 0.0
26/08:30pm 14.4 12.6 8.1 66 3.2 E 7 9 4 5 1017.6 1017.3 0.0
26/08:00pm 15.2 13.2 8.7 65 3.4 ESE 9 11 5 6 1017.5 1017.2 0.0
26/07:30pm 15.8 15.5 8.8 63 3.7 CALM 0 2 0 1 1017.0 1016.7 0.0
26/07:00pm 15.4 14.3 8.6 64 3.5 W 4 6 2 3 1016.6 1016.2 0.0
26/06:30pm 17.8 15.7 8.1 53 5.1 ESE 9 15 5 8 1016.1 1015.8 0.0
26/06:00pm 17.7 15.2 8.0 53 5.0 ESE 11 17 6 9 1015.8 1015.5 0.0
26/05:30pm 18.6 16.5 8.3 51 5.4 SE 9 13 5 7 1015.6 1015.3 0.0
26/05:00pm 19.1 16.2 8.1 49 5.8 ESE 13 19 7 10 1015.4 1015.1 0.0
26/04:30pm 20.6 17.2 7.6 43 6.8 E 15 19 8 10 1015.1 1014.8 0.0
26/04:00pm 20.7 17.6 7.3 42 7.0 ESE 13 19 7 10 1015.0 1014.7 0.0
26/03:30pm 20.7 17.9 5.1 36 7.8 SSE 9 13 5 7 1015.0 1014.7 0.0
26/03:00pm 22.4 19.4 5.8 34 8.5 SSE 11 19 6 10 1014.9 1014.6 0.0
26/02:30pm 21.8 18.9 4.8 33 8.6 NE 9 17 5 9 1015.1 1014.8 0.0
26/02:00pm 20.4 18.6 5.2 37 7.6 NNE 4 11 2 6 1015.5 1015.2 0.0
26/01:30pm 21.6 18.1 5.5 35 8.2 SE 13 20 7 11 1015.7 1015.4 0.0
26/01:00pm 21.1 18.0 5.5 36 7.9 SW 11 19 6 10 1016.1 1015.8 0.0
26/12:30pm 20.8 17.2 5.2 36 7.9 S 13 20 7 11 1016.6 1016.2 0.0
26/12:00pm 20.4 18.0 7.1 42 6.9 SSE 9 20 5 11 1017.3 1017.0 0.0
26/11:30am 18.7 15.7 5.9 43 6.4 SSE 11 20 6 11 1018.0 1017.7 0.0

Other Formats:

Comma delimited format used in spreadsheet applications
http://www.bom.gov.au/fwo/IDQ60801/IDQ60801.94549.axf

JavaScript Object Notation format (JSON) in row-major order
http://www.bom.gov.au/fwo/IDQ60801/IDQ60801.94549.json